Location: Taupo
(38.6830°S, 176.0830°E)
Time: 09:22:28
(UTC+13:00)

Cosmos 1486 Rocket - Pass Details

Date: 24 January 2019
Orbit: 759 x 783 km, 74.1° (Epoch: 20 February)

Event Time Altitude Azimuth Distance (km) Brightness Sun altitude
Exits shadow 22:36:54 10° 339° (NNW) 2,288 6.2 -19.6°
Maximum altitude 22:42:06 80° 251° (WSW) 788 4.1 -20.3°
Drops below altitude 10° 22:47:25 10° 164° (SSE) 2,334 6.9 -21.0°
Sets 22:49:50 0° 162° (SSE) 3,271 7.7 -21.3°
